| time (UTC) | temp C | wind direction | speed KPH | gust KPH | rain 1hr cm | rain 24hr cm | rain mn cm | humidity % | barometer mb |
| 20260509134551 | 8 | 104 | 3.2 | 8.0 | 0.08 | 0.71 | 0.38 | 92 | 1008.7 |
| 20260509133104 | 8 | 0 | 0.0 | 4.8 | 0.08 | 0.69 | 0.36 | 92 | 1009.0 |
| 20260509131549 | 8 | 156 | 1.6 | 11.3 | 0.08 | 0.66 | 0.33 | 92 | 1009.0 |
| 20260509130050 | 8 | 130 | 3.2 | 9.7 | 0.10 | 0.66 | 0.33 | 92 | 1009.0 |
| 20260509124550 | 8 | 150 | 6.4 | 12.9 | 0.13 | 0.69 | 0.30 | 92 | 1009.0 |
| 20260509123049 | 8 | 137 | 3.2 | 8.0 | 0.13 | 0.66 | 0.28 | 92 | 1008.9 |
| 20260509121552 | 8 | 144 | 4.8 | 9.7 | 0.15 | 0.64 | 0.25 | 92 | 1009.1 |
| 20260509120052 | 8 | 136 | 3.2 | 6.4 | 0.18 | 0.61 | 0.23 | 92 | 1009.2 |
| 20260509114552 | 8 | 136 | 3.2 | 8.0 | 0.15 | 0.56 | 0.18 | 92 | 1009.4 |
| 20260509113047 | 7 | 137 | 4.8 | 9.7 | 0.15 | 0.53 | 0.15 | 91 | 1009.4 |
| 20260509111552 | 7 | 139 | 6.4 | 11.3 | 0.10 | 0.48 | 0.10 | 91 | 1009.4 |
| 20260509110052 | 7 | 141 | 3.2 | 12.9 | 0.05 | 0.43 | 0.05 | 90 | 1009.2 |
| 20260509104606 | 7 | 135 | 3.2 | 9.7 | 0.03 | 0.41 | 0.03 | 90 | 1009.2 |
| 20260509103103 | 7 | 122 | 4.8 | 12.9 | 0.00 | 0.38 | 0.00 | 89 | 1009.1 |
| 20260509101552 | 7 | 131 | 6.4 | 12.9 | 0.00 | 0.38 | 0.00 | 89 | 1008.9 |
| 20260509100049 | 8 | 134 | 4.8 | 11.3 | 0.00 | 0.38 | 0.00 | 88 | 1009.0 |
| 20260509094551 | 7 | 126 | 4.8 | 11.3 | 0.00 | 0.38 | 0.00 | 88 | 1008.9 |
| 20260509093050 | 7 | 134 | 3.2 | 11.3 | 0.00 | 0.38 | 0.00 | 88 | 1008.9 |
| 20260509091551 | 7 | 143 | 4.8 | 9.7 | 0.00 | 0.38 | 0.00 | 88 | 1009.0 |
| 20260509090056 | 7 | 0 | 3.2 | 11.3 | 0.00 | 0.38 | 0.00 | 87 | 1008.9 |
| 20260509084604 | 7 | 131 | 3.2 | 6.4 | 0.00 | 0.38 | 0.00 | 88 | 1009.2 |
| 20260509083054 | 6 | 0 | 0.0 | 4.8 | 0.00 | 0.38 | 0.00 | 87 | 1009.2 |
| 20260509081555 | 5 | 139 | 0.0 | 3.2 | 0.00 | 0.38 | 0.00 | 86 | 1009.0 |
| 20260509080138 | 6 | 0 | 0.0 | 0.0 | 0.00 | 0.38 | 0.00 | 85 | 1009.4 |
| 20260509074552 | 6 | 0 | 0.0 | 0.0 | 0.00 | 0.38 | 0.00 | 84 | 1009.5 |
| 20260509073056 | 7 | 0 | 0.0 | 6.4 | 0.00 | 0.38 | 0.00 | 83 | 1009.5 |
| 20260509071553 | 6 | 153 | 1.6 | 6.4 | 0.00 | 0.38 | 0.00 | 84 | 1009.7 |
| 20260509070053 | 6 | 0 | 0.0 | 0.0 | 0.00 | 0.38 | 0.00 | 82 | 1009.7 |
| 20260509064547 | 6 | 0 | 0.0 | 1.6 | 0.00 | 0.38 | 0.00 | 82 | 1009.7 |
| 20260509063107 | 6 | 0 | 0.0 | 3.2 | 0.00 | 0.38 | 0.00 | 80 | 1010.1 |
| 20260509061615 | 6 | 108 | 1.6 | 6.4 | 0.00 | 0.38 | 0.00 | 76 | 1010.0 |
| 20260509060058 | 7 | 0 | 0.0 | 0.0 | 0.00 | 0.38 | 0.00 | 72 | 1010.5 |
| 20260509054549 | 7 | 0 | 0.0 | 3.2 | 0.00 | 0.38 | 0.00 | 70 | 1010.5 |
| 20260509053052 | 7 | 110 | 1.6 | 4.8 | 0.00 | 0.38 | 0.00 | 68 | 1010.5 |
| 20260509051553 | 6 | 114 | 1.6 | 4.8 | 0.00 | 0.38 | 0.00 | 68 | 1010.5 |
| 20260509050054 | 6 | 117 | 1.6 | 4.8 | 0.00 | 0.38 | 0.00 | 69 | 1010.6 |
| 20260509044549 | 6 | 120 | 0.0 | 6.4 | 0.00 | 0.38 | 0.00 | 69 | 1010.8 |
| 20260509043053 | 6 | 121 | 4.8 | 9.7 | 0.00 | 0.38 | 0.00 | 71 | 1010.7 |
| 20260509041553 | 5 | 0 | 0.0 | 0.0 | 0.00 | 0.38 | 0.00 | 75 | 1010.6 |
| 20260509040052 | 5 | 0 | 0.0 | 0.0 | 0.00 | 0.38 | 0.00 | 73 | 1010.9 |
| 20260509034554 | 6 | 0 | 0.0 | 0.0 | 0.00 | 0.38 | 0.38 | 71 | 1011.0 |
| 20260509033050 | 6 | 0 | 0.0 | 0.0 | 0.00 | 0.38 | 0.38 | 69 | 1010.9 |
| 20260509031559 | 7 | 106 | 1.6 | 4.8 | 0.00 | 0.38 | 0.38 | 68 | 1011.0 |
| 20260509030054 | 7 | 105 | 3.2 | 6.4 | 0.00 | 0.38 | 0.38 | 68 | 1010.9 |
| 20260509024551 | 6 | 256 | 1.6 | 4.8 | 0.00 | 0.38 | 0.38 | 69 | 1011.2 |
| 20260509023050 | 7 | 0 | 0.0 | 3.2 | 0.00 | 0.38 | 0.38 | 68 | 1011.3 |
| 20260509021555 | 7 | 256 | 1.6 | 4.8 | 0.00 | 0.38 | 0.38 | 64 | 1011.3 |
| 20260509020057 | 8 | 0 | 0.0 | 1.6 | 0.00 | 0.38 | 0.38 | 65 | 1011.2 |
| 20260509014553 | 8 | 252 | 1.6 | 4.8 | 0.00 | 0.38 | 0.38 | 63 | 1011.2 |
| 20260509013055 | 7 | 0 | 0.0 | 0.0 | 0.00 | 0.38 | 0.38 | 70 | 1011.1 |
| 20260509011548 | 6 | 0 | 0.0 | 0.0 | 0.00 | 0.38 | 0.38 | 70 | 1010.9 |
| 20260509010056 | 7 | 0 | 0.0 | 0.0 | 0.00 | 0.38 | 0.38 | 70 | 1010.8 |
| 20260509004602 | 6 | 0 | 0.0 | 0.0 | 0.00 | 0.38 | 0.38 | 71 | 1010.6 |
| 20260509003051 | 7 | 0 | 0.0 | 0.0 | 0.00 | 0.38 | 0.38 | 69 | 1010.4 |
| 20260509001549 | 7 | 0 | 0.0 | 0.0 | 0.00 | 0.38 | 0.38 | 66 | 1010.3 |
| 20260509000051 | 8 | 0 | 0.0 | 0.0 | 0.00 | 0.38 | 0.38 | 62 | 1010.1 |
| 20260508234554 | 10 | 0 | 0.0 | 0.0 | 0.00 | 0.38 | 0.38 | 59 | 1010.1 |
| 20260508233053 | 10 | 0 | 0.0 | 0.0 | 0.00 | 0.38 | 0.38 | 55 | 1010.0 |
| 20260508231552 | 10 | 245 | 0.0 | 6.4 | 0.00 | 0.38 | 0.38 | 55 | 1009.9 |
| 20260508230051 | 10 | 247 | 3.2 | 6.4 | 0.00 | 0.38 | 0.38 | 54 | 1009.9 |
| 20260508224553 | 10 | 0 | 0.0 | 4.8 | 0.00 | 0.38 | 0.38 | 57 | 1010.0 |
| 20260508223051 | 10 | 256 | 0.0 | 8.0 | 0.00 | 0.38 | 0.38 | 54 | 1010.0 |
| 20260508221556 | 10 | 238 | 1.6 | 11.3 | 0.00 | 0.38 | 0.38 | 54 | 1009.9 |
| 20260508220054 | 10 | 209 | 1.6 | 11.3 | 0.00 | 0.38 | 0.38 | 54 | 1009.9 |
| 20260508214549 | 10 | 225 | 3.2 | 9.7 | 0.00 | 0.38 | 0.38 | 55 | 1010.1 |
| 20260508213058 | 11 | 213 | 3.2 | 12.9 | 0.00 | 0.38 | 0.38 | 56 | 1010.1 |
| 20260508211549 | 11 | 243 | 3.2 | 9.7 | 0.00 | 0.38 | 0.38 | 54 | 1010.1 |
| 20260508210055 | 10 | 237 | 0.0 | 11.3 | 0.00 | 0.38 | 0.38 | 57 | 1010.2 |
| 20260508204551 | 11 | 234 | 1.6 | 11.3 | 0.00 | 0.38 | 0.38 | 56 | 1010.3 |
| 20260508203059 | 11 | 231 | 0.0 | 12.9 | 0.00 | 0.38 | 0.38 | 55 | 1010.3 |
| 20260508201559 | 11 | 234 | 3.2 | 9.7 | 0.00 | 0.38 | 0.38 | 57 | 1010.5 |
| 20260508200050 | 11 | 249 | 3.2 | 9.7 | 0.00 | 0.38 | 0.38 | 57 | 1010.4 |
| 20260508194550 | 10 | 265 | 0.0 | 9.7 | 0.00 | 0.38 | 0.38 | 61 | 1010.7 |
| 20260508193055 | 10 | 229 | 3.2 | 11.3 | 0.00 | 0.38 | 0.38 | 60 | 1011.0 |
| 20260508191556 | 11 | 258 | 3.2 | 11.3 | 0.00 | 0.38 | 0.38 | 61 | 1011.0 |
| 20260508190054 | 10 | 146 | 1.6 | 8.0 | 0.00 | 0.38 | 0.38 | 65 | 1011.1 |
| 20260508184556 | 9 | 261 | 0.0 | 11.3 | 0.00 | 0.38 | 0.38 | 68 | 1011.3 |
| 20260508183056 | 8 | 243 | 3.2 | 9.7 | 0.00 | 0.38 | 0.38 | 69 | 1011.7 |
| 20260508181602 | 8 | 277 | 3.2 | 9.7 | 0.00 | 0.38 | 0.38 | 74 | 1011.7 |
| 20260508180056 | 8 | 249 | 1.6 | 8.0 | 0.00 | 0.38 | 0.38 | 72 | 1011.9 |
| 20260508174605 | 10 | 143 | 3.2 | 11.3 | 0.00 | 0.38 | 0.38 | 67 | 1011.8 |
| 20260508173054 | 10 | 149 | 3.2 | 9.7 | 0.00 | 0.38 | 0.38 | 73 | 1012.0 |
| 20260508171554 | 9 | 204 | 1.6 | 9.7 | 0.00 | 0.38 | 0.38 | 76 | 1011.9 |
| 20260508170055 | 8 | 183 | 1.6 | 11.3 | 0.00 | 0.38 | 0.38 | 79 | 1012.1 |
| 20260508164553 | 7 | 199 | 0.0 | 6.4 | 0.00 | 0.38 | 0.38 | 81 | 1012.3 |
| 20260508163054 | 6 | 0 | 0.0 | 4.8 | 0.00 | 0.38 | 0.38 | 81 | 1012.3 |
| 20260508161549 | 5 | 0 | 0.0 | 4.8 | 0.00 | 0.38 | 0.38 | 86 | 1012.4 |
| 20260508160051 | 5 | 258 | 0.0 | 6.4 | 0.00 | 0.38 | 0.38 | 88 | 1012.5 |
| 20260508154551 | 5 | 234 | 1.6 | 4.8 | 0.00 | 0.38 | 0.38 | 90 | 1012.4 |
| 20260508153054 | 4 | 264 | 1.6 | 4.8 | 0.03 | 0.38 | 0.38 | 91 | 1012.7 |
| 20260508151554 | 3 | 238 | 1.6 | 6.4 | 0.03 | 0.38 | 0.38 | 91 | 1012.6 |
| 20260508150055 | 3 | 0 | 0.0 | 4.8 | 0.03 | 0.38 | 0.38 | 91 | 1012.4 |
| 20260508144556 | 2 | 0 | 1.6 | 6.4 | 0.05 | 0.38 | 0.38 | 90 | 1012.2 |
| 20260508143051 | 2 | 0 | 0.0 | 3.2 | 0.08 | 0.36 | 0.36 | 90 | 1012.9 |
| 20260508141614 | 2 | 236 | 0.0 | 3.2 | 0.18 | 0.36 | 0.36 | 90 | 1012.6 |
| 20260508140054 | 2 | 0 | 0.0 | 6.4 | 0.28 | 0.36 | 0.36 | 90 | 1012.4 |